Location: Cran-Gévrier
(45.9039°N, 6.1012°E)
Time: 10:20:59
(UTC+00:00)

USA 215 - Visible Passes

Search period start: 28 September 2023 00:00
Search period end: 08 October 2023 00:00
Orbit: 1101 x 1107 km, 123.0° (Epoch: 22 September)

Date Brightness Start Highest point End Pass type
(mag) Time Alt. Az. Time Alt. Az. Time Alt. Az.
28 Sep 5.3 00:18:40 10° ENE 00:20:19 18° ENE 00:20:19 18° ENE visible
28 Sep 3.4 02:00:28 10° ESE 02:06:59 69° NNE 02:07:42 64° N visible
28 Sep 3.6 03:44:03 10° SSE 03:50:12 42° SW 03:55:03 16° WNW visible
28 Sep 4.1 18:29:00 12° ENE 18:33:57 27° SE 18:39:20 10° S visible
28 Sep 3.1 20:16:26 66° ENE 20:17:30 88° SE 20:24:03 10° SW visible
28 Sep 5.0 22:03:52 23° WNW 22:03:52 23° WNW 22:06:15 10° W visible
29 Sep 4.1 01:18:13 10° E 01:23:29 45° NE 01:23:29 45° NE visible
29 Sep 3.1 03:00:40 10° SE 03:07:13 75° SW 03:10:52 29° WNW visible
29 Sep 4.4 04:46:07 10° S 04:50:57 22° WSW 04:55:46 10° WNW visible
29 Sep 4.8 17:48:05 10° E 17:50:34 12° ESE 17:53:04 10° SE visible
29 Sep 3.3 19:33:04 43° E 19:34:37 52° SE 19:40:56 10° SSW visible
29 Sep 4.4 21:20:30 34° W 21:20:30 34° W 21:24:05 10° WSW visible
29 Sep6.223:07:56WNW23:07:56WNW22:51:51ENEvisible
30 Sep 4.9 00:36:10 10° ENE 00:39:13 26° ENE 00:39:13 26° ENE visible
30 Sep 3.4 02:17:59 10° ESE 02:24:28 69° NNE 02:26:35 45° NW visible
30 Sep 3.6 04:01:35 10° SSE 04:07:43 42° SW 04:13:53 10° WNW visible
30 Sep 4.1 18:49:42 24° ESE 18:51:28 27° SE 18:56:52 10° S visible
30 Sep 3.8 20:37:08 47° SW 20:37:08 47° SW 20:41:34 10° SW visible
30 Sep 5.6 23:54:02 10° ENE 23:54:52 14° ENE 23:54:52 14° ENE visible
01 Oct 4.0 01:35:43 10° E 01:41:56 48° NNE 01:42:13 47° NNE visible
01 Oct 3.1 03:18:11 10° SE 03:24:45 75° SW 03:29:34 20° NW visible
01 Oct 4.8 18:06:20 11° ESE 18:08:06 12° ESE 18:10:38 10° SE visible
01 Oct 3.7 19:53:46 43° S 19:53:46 43° S 19:58:27 10° SSW visible
01 Oct 5.5 21:41:12 12° WSW 21:41:12 12° WSW 21:41:36 10° WSW visible
02 Oct 4.7 00:53:40 10° ENE 00:57:48 32° NE 00:57:48 32° NE visible
02 Oct 3.4 02:35:29 10° ESE 02:42:00 69° NNE 02:45:09 33° NW visible
02 Oct 3.7 04:19:05 10° SSE 04:25:14 42° SW 04:31:23 10° WNW visible
02 Oct 4.2 19:10:23 25° SSE 19:10:23 25° SSE 19:14:23 10° S visible
02 Oct 5.2 20:57:49 17° SW 20:57:49 17° SW 20:59:05 10° SW visible
03 Oct 5.4 00:11:33 10° ENE 00:13:20 18° NE 00:13:20 18° NE visible
03 Oct 4.0 01:53:13 10° E 01:59:27 48° NNE 02:00:41 43° N visible
03 Oct 3.2 03:35:42 10° SE 03:42:15 75° SW 03:48:02 14° NW visible
03 Oct 4.9 18:26:57 12° SE 18:26:57 12° SE 18:28:12 10° SE visible
03 Oct 4.9 20:14:22 18° SSW 20:14:22 18° SSW 20:15:58 10° SSW visible
04 Oct 4.5 01:11:10 10° ENE 01:16:10 36° NNE 01:16:10 36° NNE visible
04 Oct 3.4 02:53:00 10° ESE 02:59:29 70° NNE 03:03:31 25° NW visible
04 Oct 3.7 04:36:37 10° SSE 04:42:44 41° SW 04:48:53 10° WNW visible
04 Oct 5.0 19:30:53 14° S 19:30:53 14° S 19:31:55 10° S visible
05 Oct 5.2 00:29:03 10° ENE 00:31:38 22° NE 00:31:38 22° NE visible
05 Oct 4.0 02:10:44 10° E 02:16:57 48° NNE 02:18:59 37° NNW visible
05 Oct 3.2 03:53:12 10° SE 03:59:45 74° SW 04:06:20 10° NW visible
05 Oct 5.7 23:46:43 10° NE 23:47:04 12° NE 23:47:04 12° NE visible
06 Oct 4.4 01:28:40 10° ENE 01:34:25 37° NNE 01:34:25 37° NNE visible
06 Oct 3.4 03:10:30 10° ESE 03:17:01 70° NNE 03:21:45 20° NW visible
06 Oct 3.7 04:54:08 10° SSE 05:00:15 41° SW 05:06:24 10° WNW visible
07 Oct 5.0 00:46:34 10° ENE 00:49:50 26° NE 00:49:50 26° NE visible
07 Oct 4.0 02:28:14 10° E 02:34:27 48° NNE 02:37:10 31° NNW visible
07 Oct 3.2 04:10:43 10° SE 04:17:16 74° SW 04:23:51 10° NW visible
